Starlink 5998

operational
NORAD ID: 56468 Int'l Des: 2023-064 Owner: SPXS Country: US Constellation: starlink
LEOCIRCULAR

Über Starlink 5998

Beschreibung wird geladen...

Live-Position

3D-Globus wird geladen...

Nächste Überflüge

Höhenverlauf

Altitude vs Time

uPlot chart will show altitude changes over time

Zweizeiliger Elementsatz

1 56468U 23064W 25257.33028312 .00000650 00000-0 62227-4 0 9991
2 56468 69.9986 228.9346 0002886 268.9915 91.0913 14.98329625128830
Epoch: 14. Sept. 2025 • Age: 26 hours

Aktueller Status

Höhe 577.6 km
Geschwindigkeit 7.57 km/s
Subsatellitenpunkt -16.87°S, 83.1°E
Startdatum 10. Mai 2023
Alter 2.3 years
Typ internet

Technische Details

Klassifizierung Payload
Masse 305.00 kg
Trockenmasse 290.00 kg
Gesamtmasse 305.00 kg
Länge 0.20 m
Durchmesser 2.80 m
Spannweite 9.00 m
Form Box + pan
Hersteller SPXS
Bus-Typ Starlink
Phasenstatus In Orbit
Besitzer/Staat SPXS/US

Große Konstellationen

Loading constellations...